Regional Weather Roundup
Issued by NWS

Home | Current Version | Previous Version | Text Only | Print | Product List | Glossary On
Versions: 1 2 3 4 5 6 7 8 9 10 11 12 13 14 15 16 17 18 19 20 21 22 23 24 25 26 27 28 29 30 31 32 33 34 35 36 37 38 39 40 41 42 43 44 45 46 47 48 49 50
000
ASUS43 KMPX 230410
RWRMN
WEATHER ROUNDUP FOR MINNESOTA
NATIONAL WEATHER SERVICE TWIN CITIES/CHANHASSEN MN
1100 PM CDT MON SEP 22 2014


NOTE: "FAIR" INDICATES FEW OR NO CLOUDS BELOW 12,000 FEET WITH NO
SIGNIFICANT WEATHER AND/OR OBSTRUCTIONS TO VISIBILITY. N/A MEANS
CURRENT SKY AND/OR WEATHER CONDITIONS ARE NOT AVAILABLE.

MNZ060>063-068>070-230500-
   Twin Cities Metro

CITY           SKY/WX    TMP DP  RH WIND       PRES   REMARKS
TWIN CITIES    CLEAR     61  50  67 S6        30.18R
ST PAUL        CLEAR     57  53  86 E3        30.19R
CRYSTAL        CLEAR     55  51  86 S3        30.16R
BLAINE         CLEAR     55  54  94 CALM      30.17S
LAKEVILLE      CLEAR     50  48  93 CALM      30.18S
EDEN PRAIRIE   CLEAR     58  51  78 S6        30.17R
SOUTH ST PAUL  CLEAR     56  53  89 CALM      30.18R
LAKE ELMO      FAIR      50  50 100 CALM      30.19S
$$
MNZ001>005-007-008-013>017-022>024-027-028-230500-
   Northwest Minnesota

CITY           SKY/WX    TMP DP  RH WIND       PRES   REMARKS
BEMIDJI        CLEAR     52  47  83 S6        30.12R
HALLOCK        CLEAR     54  48  82 S9        30.03R
ROSEAU         CLEAR     54  48  82 S7        30.06S
WARROAD        CLEAR     55  52  88 CALM      30.08R
THIEF RVR FALL CLEAR     57  48  72 SE8       30.07S
CROOKSTON      CLEAR     55  48  76 SE9       30.06S
FOSSTON        CLEAR     57  52  82 SE7       30.10S
DETROIT LAKES  CLEAR     57  50  77 S8        30.12S
MOORHEAD       CLEAR     59  52  77 S8        30.08S
PARK RAPIDS    CLEAR     56  49  77 SE3       30.12S
MAHNOMEN       FAIR      57  49  76 S7        30.09S
$$
MNZ006-009>011-018-025>026-230500-
   North Central Minnesota

CITY           SKY/WX    TMP DP  RH WIND       PRES   REMARKS
BAUDETTE       CLEAR     52  50  93 CALM      30.08S
FLAG ISLAND    CLEAR     59  54  82 S3        30.05S
INTL FALLS     CLEAR     47  46  97 CALM      30.10R
WASKISH        CLEAR     50  48  93 CALM      30.10S
BIG FORK       CLEAR     46  46 100 CALM      30.13R
LONGVILLE      CLEAR     46  46 100 CALM      30.13S
GRAND RAPIDS   CLEAR     50  46  87 S6        30.14R
CRANE LAKE     CLEAR     45  45 100 CALM      30.13R
ORR            CLEAR     54  48  82 CALM      30.10R
COOK           CLEAR     52  48  87 SW1       30.13R
WALKER         FAIR      51  49  92 CALM      30.12S
$$
MNZ012-019>021-037-230500-
   Northeast Minnesota

CITY           SKY/WX    TMP DP  RH WIND       PRES   REMARKS
DULUTH         CLEAR     57  49  74 W7        30.15R
ELY            CLEAR     52  48  87 SW5       30.13R
HIBBING        CLEAR     46  45  96 CALM      30.14R
EVELETH        CLEAR     46  45  93 CALM      30.15R FOG
DULUTH HARBOR  CLEAR     57  54  88 SW8       30.14S
TWO HARBORS    CLEAR     55  48  76 W5        30.12R
SILVER BAY     CLEAR     50  50 100 CALM      30.11R
GRAND MARAIS     N/A     56  51  84 VRB6      30.07S
G MARAIS ARPRT CLEAR     54  46  76 W6        30.13R
$$
MNZ029>031-032-039>041-046>048-054>057-064-230500-
   West Central Minnesota

CITY           SKY/WX    TMP DP  RH WIND       PRES   REMARKS
FERGUS FALLS   CLEAR     59  46  63 SE7       30.11R
WHEATON        CLEAR     50  46  87 SE7       30.11S
MORRIS         CLEAR     54  48  82 SE7       30.11S
ALEXANDRIA     CLEAR     55  49  80 SE6       30.15R
ELBOW LAKE     FAIR      56  49  78 SE7       30.11S
WADENA         CLEAR     52  46  82 S3        30.13S
GLENWOOD       CLEAR     54  48  82 SE6       30.15R
APPLETON       CLEAR     57  48  72 S5        30.11S
BENSON         CLEAR     54  48  82 S6        30.13R
ORTONVILLE     CLEAR     55  46  71 S5        30.10S
MADISON        CLEAR     55  48  76 S3        30.11S
WILLMAR        FAIR      54  46  76 SE3       30.16S
$$
MNZ033>034-036-042>043-049>051-058-059-230500-
   Central Minnesota

CITY           SKY/WX    TMP DP  RH WIND       PRES   REMARKS
ST CLOUD       CLEAR     54  50  86 CALM      30.16R
SAUK CENTRE    FAIR      49  48  96 CALM      30.14S
PAYNESVILLE    CLEAR     51  48  91 SE5       30.16S
AITKIN         CLEAR     52  46  82 CALM      30.14S
PINE RIVER     CLEAR     46  46 100 CALM      30.17S
BRAINERD       CLEAR     49  49 100 CALM      30.15S
STAPLES        CLEAR     52  48  87 CALM      30.14S
LONG PRAIRIE   FAIR      52  48  87 CALM      30.15S
LITTLE FALLS   CLEAR     50  48  93 CALM      30.15R
LITCHFIELD     CLEAR     55  52  88 CALM      30.16S
BUFFALO        CLEAR     57  50  78 CALM      30.17S
MAPLE LAKE     CLEAR     55  53  92 S5        30.17S
$$
MNZ037-044-045-052-053-230500-
   East Central Minnesota

CITY           SKY/WX    TMP DP  RH WIND       PRES   REMARKS
PRINCETON      CLEAR     52  50  93 CALM      30.17R
MORA           CLEAR     48  46  93 CALM      30.18S FOG
CAMBRIDGE      CLEAR     57  48  72 CALM      30.15S
RUSH CITY      MOCLDY    49  48  95 CALM      30.17S
MOOSE LAKE     CLEAR     46  45  93 CALM      30.15R FOG
HINCKLEY       FAIR      46  46 100 CALM      30.17R
CLOQUET        CLEAR     55  48  76 SW5       30.16R
MCGREGOR       CLEAR     52  50  93 CALM      30.16R
$$
MNZ071>073-080-081-089-090-097-098-230500-
   Southwest Minnesota

CITY           SKY/WX    TMP DP  RH WIND       PRES   REMARKS
MONTEVIDEO     CLEAR     57  48  72 SW5       30.14R
GRANITE FALLS  CLEAR     52  47  84 S5        30.15S
CANBY          CLEAR     59  48  67 S7        30.13S
MARSHALL       CLEAR     55  46  71 S8        30.13S
REDWOOD FALLS  CLEAR     55  49  80 S8        30.15R
OLIVIA         CLEAR     54  46  76 SE6       30.15R
PIPESTONE      PTCLDY    57  48  72 S8        30.16S
WINDOM         CLEAR     55  46  71 CALM      30.17F
WORTHINGTON    CLEAR     55  48  76 S8        30.18F
JACKSON        CLEAR     54  46  76 S5        30.19S
TRACY          CLEAR     58  49  73 S8        30.15S
SLAYTON        CLEAR     52  47  84 CALM      30.17S
$$
MNZ065>067-074>077-082>085-091>093-230500-
   South Central Minnesota

CITY           SKY/WX    TMP DP  RH WIND       PRES   REMARKS
MANKATO        CLEAR     59  45  58 S7        30.18S
NEW ULM        CLEAR     55  50  82 S6        30.17S
ST JAMES       CLEAR     55  48  76 SE6       30.18S
FAIRMONT       CLEAR     52  43  71 S6        30.18F
GLENCOE        CLEAR     58  48  70 CALM      30.16S
FARIBAULT      CLEAR     54  46  76 CALM      30.20R
OWATONNA       CLEAR     55  48  76 S6        30.20R
WASECA         CLEAR     50  45  81 S3        30.21R
ALBERT LEA     CLEAR     52  52 100 CALM      30.21R
$$
MNZ078>079-086>088-094>096-230500-
   Southeast Minnesota

CITY           SKY/WX    TMP DP  RH WIND       PRES   REMARKS
ROCHESTER      CLEAR     50  47  89 S6        30.22S
RED WING       CLEAR     50  48  93 CALM      30.18S
STANTON        CLEAR     54  49  82 S5        30.18S
DODGE CENTER   CLEAR     50  46  87 S5        30.21S
WINONA         CLEAR     54  54 100 CALM      30.22S FOG
AUSTIN         CLEAR     50  46  87 CALM      30.21S
PRESTON        CLEAR     55  51  89 S5        30.22S
$$
ABBREVIATIONS USED IN REMARKS
   TC - TEMPERATURES IN CELSIUS
  WCI - WIND CHILL INDEX
   HX - HEAT INDEX
  VSB - VISIBILITY
$$



USA.gov is the U.S. government's official web portal to all federal, state and local government web resources and services.